Voltar ao catálogo

STARLINK-31485

AtivoComunicaçõesVLEO
NORAD 59308·PAYLOAD·🇺🇸 United States

Lançado Mar 24, 2024 de Cape Canaveral Space Force Station

Loading…

Próximas Passagens (próximas 24 horas)

TLE

AtualizadoSource: CelesTrak SupGP

Época: Sep 15, 2026, 03:30 UTC

1 59308C 24056N   26258.14631944 -.00018821  00000+0 -68210-3 0  2586
2 59308  43.0009 241.0188 0001315 268.8616 182.4109 15.27568151    11

Acompanhe STARLINK-31485 em tempo real com AllMySat

Download on the App Store